Location: ????
(32.1228°N, 34.8377°E)
Time: 01:04:26
(UTC+00:00)

Meteor 1-31 Rocket - Pass Details

Date: 21 September 2020
Orbit: 521 x 546 km, 97.6° (Epoch: 21 October)

Event Time Altitude Azimuth Distance (km) Brightness Sun altitude
Rises 02:11:02 0° 15° (NNE) 2,663 6.7 -17.1°
Reaches altitude 10° 02:13:09 10° 19° (NNE) 1,774 5.8 -16.6°
Maximum altitude 02:16:57 63° 101° (E) 596 3.2 -15.8°
Drops below altitude 10° 02:20:45 10° 182° (S) 1,776 5.3 -15.1°
Sets 02:22:52 0° 186° (S) 2,667 6.2 -14.6°
